| time (UTC) | temp F | wind direction | speed MPH | gust MPH | rain 1hr in | rain 24hr in | rain mn in | humidity % | barometer mb |
| 20260510033710 | 72 | 28 | 7.0 | 11.0 | 0.00 | 0.00 | 0.00 | 39 | 1027.7 |
| 20260510033209 | 71 | 36 | 14.0 | 15.0 | 0.00 | 0.00 | 0.00 | 40 | 1027.7 |
| 20260510032705 | 71 | 19 | 14.0 | 15.0 | 0.00 | 0.00 | 0.00 | 40 | 1027.6 |
| 20260510032200 | 71 | 31 | 7.0 | 14.0 | 0.00 | 0.00 | 0.00 | 41 | 1027.6 |
| 20260510031655 | 71 | 43 | 10.0 | 14.0 | 0.00 | 0.00 | 0.00 | 41 | 1027.9 |
| 20260510031153 | 71 | 39 | 5.0 | 10.0 | 0.00 | 0.00 | 0.00 | 42 | 1027.9 |
| 20260510030652 | 70 | 23 | 9.0 | 12.0 | 0.00 | 0.00 | 0.00 | 41 | 1027.8 |
| 20260510030150 | 70 | 54 | 14.0 | 17.0 | 0.00 | 0.00 | 0.00 | 42 | 1027.8 |
| 20260510025647 | 70 | 51 | 9.0 | 11.0 | 0.00 | 0.00 | 0.00 | 42 | 1027.7 |
| 20260510025144 | 69 | 39 | 9.0 | 14.0 | 0.00 | 0.00 | 0.00 | 43 | 1027.8 |
| 20260510024641 | 69 | 21 | 11.0 | 15.0 | 0.00 | 0.00 | 0.00 | 44 | 1027.9 |
| 20260510024137 | 69 | 33 | 6.0 | 16.0 | 0.00 | 0.00 | 0.00 | 43 | 1027.9 |
| 20260510023633 | 69 | 28 | 12.0 | 16.0 | 0.00 | 0.00 | 0.00 | 44 | 1028.0 |
| 20260510023131 | 69 | 31 | 9.0 | 20.0 | 0.00 | 0.00 | 0.00 | 44 | 1028.2 |
| 20260510022631 | 69 | 60 | 7.0 | 14.0 | 0.00 | 0.00 | 0.00 | 45 | 1028.2 |
| 20260510022126 | 69 | 51 | 9.0 | 12.0 | 0.00 | 0.00 | 0.00 | 45 | 1028.2 |
| 20260510021621 | 68 | 26 | 11.0 | 16.0 | 0.00 | 0.00 | 0.00 | 45 | 1028.4 |
| 20260510021120 | 68 | 34 | 13.0 | 14.0 | 0.00 | 0.00 | 0.00 | 47 | 1028.3 |
| 20260510020613 | 67 | 59 | 9.0 | 13.0 | 0.00 | 0.00 | 0.00 | 48 | 1028.6 |
| 20260510020109 | 67 | 39 | 11.0 | 14.0 | 0.00 | 0.00 | 0.00 | 47 | 1028.3 |
| 20260510015605 | 67 | 56 | 8.0 | 13.0 | 0.00 | 0.00 | 0.00 | 48 | 1028.4 |
| 20260510015102 | 67 | 33 | 9.0 | 12.0 | 0.00 | 0.00 | 0.00 | 49 | 1028.5 |
| 20260510014558 | 66 | 45 | 6.0 | 13.0 | 0.00 | 0.00 | 0.00 | 49 | 1028.5 |
| 20260510014055 | 65 | 23 | 9.0 | 12.0 | 0.00 | 0.00 | 0.00 | 50 | 1028.5 |
| 20260510013549 | 65 | 36 | 9.0 | 13.0 | 0.00 | 0.00 | 0.00 | 50 | 1028.5 |
| 20260510013045 | 65 | 62 | 8.0 | 15.0 | 0.00 | 0.00 | 0.00 | 50 | 1028.6 |
| 20260510012539 | 64 | 43 | 8.0 | 14.0 | 0.00 | 0.00 | 0.00 | 51 | 1028.6 |
| 20260510012036 | 64 | 34 | 7.0 | 16.0 | 0.00 | 0.00 | 0.00 | 52 | 1028.7 |
| 20260510011536 | 64 | 38 | 11.0 | 15.0 | 0.00 | 0.00 | 0.00 | 52 | 1028.6 |
| 20260510011032 | 64 | 42 | 13.0 | 14.0 | 0.00 | 0.00 | 0.00 | 52 | 1028.6 |
| 20260510010528 | 63 | 31 | 9.0 | 12.0 | 0.00 | 0.00 | 0.00 | 53 | 1028.6 |
| 20260510010026 | 63 | 33 | 8.0 | 13.0 | 0.00 | 0.00 | 0.00 | 53 | 1028.7 |
| 20260510005521 | 62 | 40 | 11.0 | 13.0 | 0.00 | 0.00 | 0.00 | 53 | 1028.6 |
| 20260510005019 | 62 | 92 | 9.0 | 11.0 | 0.00 | 0.00 | 0.00 | 53 | 1028.7 |
| 20260510004516 | 62 | 52 | 11.0 | 14.0 | 0.00 | 0.00 | 0.00 | 54 | 1028.7 |
| 20260510004015 | 62 | 42 | 7.0 | 8.0 | 0.00 | 0.00 | 0.00 | 54 | 1028.6 |
| 20260510003510 | 61 | 47 | 8.0 | 14.0 | 0.00 | 0.00 | 0.00 | 55 | 1028.7 |
| 20260510003006 | 61 | 45 | 11.0 | 13.0 | 0.00 | 0.00 | 0.00 | 55 | 1028.8 |
| 20260510002502 | 61 | 72 | 6.0 | 13.0 | 0.00 | 0.00 | 0.00 | 56 | 1028.9 |
| 20260510001959 | 60 | 58 | 8.0 | 13.0 | 0.00 | 0.00 | 0.00 | 56 | 1028.6 |
| 20260510001456 | 60 | 58 | 6.0 | 11.0 | 0.00 | 0.00 | 0.00 | 56 | 1028.5 |
| 20260510000954 | 60 | 53 | 6.0 | 10.0 | 0.00 | 0.00 | 0.00 | 57 | 1028.5 |
| 20260510000449 | 59 | 59 | 9.0 | 13.0 | 0.00 | 0.00 | 0.00 | 57 | 1028.3 |
| 20260509235946 | 59 | 28 | 7.0 | 10.0 | 0.00 | 0.00 | 0.00 | 58 | 1028.3 |
| 20260509235443 | 59 | 50 | 7.0 | 11.0 | 0.00 | 0.00 | 0.00 | 58 | 1028.3 |
| 20260509234940 | 58 | 41 | 9.0 | 13.0 | 0.00 | 0.00 | 0.00 | 59 | 1028.3 |
| 20260509234436 | 58 | 63 | 9.0 | 14.0 | 0.00 | 0.00 | 0.00 | 59 | 1028.3 |
| 20260509233934 | 58 | 49 | 4.0 | 8.0 | 0.00 | 0.00 | 0.00 | 59 | 1028.2 |
| 20260509233432 | 57 | 66 | 9.0 | 12.0 | 0.00 | 0.00 | 0.00 | 60 | 1028.2 |
| 20260509232927 | 57 | 41 | 8.0 | 11.0 | 0.00 | 0.00 | 0.00 | 60 | 1028.2 |
| 20260509232425 | 57 | 63 | 7.0 | 9.0 | 0.00 | 0.00 | 0.00 | 61 | 1028.3 |
| 20260509231921 | 56 | 59 | 8.0 | 9.0 | 0.00 | 0.00 | 0.00 | 61 | 1028.2 |
| 20260509231418 | 56 | 65 | 7.0 | 9.0 | 0.00 | 0.00 | 0.00 | 62 | 1028.2 |
| 20260509230916 | 56 | 42 | 6.0 | 10.0 | 0.00 | 0.00 | 0.00 | 62 | 1028.4 |
| 20260509230412 | 56 | 60 | 5.0 | 9.0 | 0.00 | 0.00 | 0.00 | 62 | 1028.1 |
| 20260509225908 | 56 | 53 | 7.0 | 8.0 | 0.00 | 0.00 | 0.00 | 62 | 1028.2 |
| 20260509225405 | 56 | 61 | 6.0 | 8.0 | 0.00 | 0.00 | 0.00 | 62 | 1028.2 |
| 20260509224901 | 56 | 73 | 8.0 | 9.0 | 0.00 | 0.00 | 0.00 | 62 | 1028.0 |
| 20260509224357 | 56 | 74 | 6.0 | 10.0 | 0.00 | 0.00 | 0.00 | 62 | 1028.0 |
| 20260509223855 | 56 | 58 | 6.0 | 7.0 | 0.00 | 0.00 | 0.00 | 62 | 1028.2 |
| 20260509223350 | 56 | 58 | 8.0 | 9.0 | 0.00 | 0.00 | 0.00 | 62 | 1028.2 |
| 20260509222849 | 56 | 56 | 10.0 | 11.0 | 0.00 | 0.00 | 0.00 | 62 | 1028.2 |
| 20260509222349 | 56 | 68 | 6.0 | 9.0 | 0.00 | 0.00 | 0.00 | 62 | 1028.2 |
| 20260509221844 | 56 | 44 | 5.0 | 8.0 | 0.00 | 0.00 | 0.00 | 62 | 1028.1 |
| 20260509221342 | 56 | 58 | 7.0 | 8.0 | 0.00 | 0.00 | 0.00 | 62 | 1028.0 |
| 20260509220843 | 56 | 49 | 8.0 | 9.0 | 0.00 | 0.00 | 0.00 | 62 | 1028.1 |
| 20260509220339 | 56 | 57 | 5.0 | 8.0 | 0.00 | 0.00 | 0.00 | 62 | 1027.9 |
| 20260509215834 | 56 | 60 | 7.0 | 8.0 | 0.00 | 0.00 | 0.00 | 61 | 1027.9 |
| 20260509215331 | 56 | 69 | 4.0 | 9.0 | 0.00 | 0.00 | 0.00 | 61 | 1027.9 |
| 20260509214828 | 56 | 56 | 7.0 | 9.0 | 0.00 | 0.00 | 0.00 | 61 | 1027.9 |
| 20260509214325 | 56 | 59 | 5.0 | 6.0 | 0.00 | 0.00 | 0.00 | 61 | 1027.8 |
| 20260509213823 | 57 | 43 | 7.0 | 9.0 | 0.00 | 0.00 | 0.00 | 60 | 1027.8 |
| 20260509213318 | 57 | 62 | 8.0 | 10.0 | 0.00 | 0.00 | 0.00 | 60 | 1027.6 |
| 20260509212816 | 57 | 59 | 7.0 | 10.0 | 0.00 | 0.00 | 0.00 | 60 | 1027.7 |
| 20260509212313 | 56 | 56 | 5.0 | 9.0 | 0.00 | 0.00 | 0.00 | 60 | 1027.5 |
| 20260509211809 | 56 | 42 | 9.0 | 9.0 | 0.00 | 0.00 | 0.00 | 60 | 1027.6 |
| 20260509211305 | 57 | 58 | 6.0 | 11.0 | 0.00 | 0.00 | 0.00 | 60 | 1027.5 |
| 20260509210801 | 57 | 46 | 8.0 | 9.0 | 0.00 | 0.00 | 0.00 | 59 | 1027.6 |
| 20260509210259 | 57 | 39 | 5.0 | 10.0 | 0.00 | 0.00 | 0.00 | 59 | 1027.7 |
| 20260509205759 | 57 | 58 | 4.0 | 10.0 | 0.00 | 0.00 | 0.00 | 59 | 1027.4 |
| 20260509205254 | 56 | 68 | 5.0 | 11.0 | 0.00 | 0.00 | 0.00 | 59 | 1027.3 |
| 20260509204750 | 56 | 28 | 7.0 | 9.0 | 0.00 | 0.00 | 0.00 | 60 | 1027.1 |
| 20260509204246 | 56 | 45 | 5.0 | 8.0 | 0.00 | 0.00 | 0.00 | 60 | 1027.3 |
| 20260509203742 | 56 | 60 | 5.0 | 7.0 | 0.00 | 0.00 | 0.00 | 60 | 1027.2 |
| 20260509203241 | 55 | 57 | 7.0 | 8.0 | 0.00 | 0.00 | 0.00 | 61 | 1027.2 |
| 20260509202736 | 55 | 51 | 4.0 | 6.0 | 0.00 | 0.00 | 0.00 | 61 | 1027.2 |
| 20260509202232 | 55 | 58 | 4.0 | 6.0 | 0.00 | 0.00 | 0.00 | 61 | 1027.1 |
| 20260509201726 | 55 | 38 | 5.0 | 5.0 | 0.00 | 0.00 | 0.00 | 62 | 1027.2 |
| 20260509201224 | 55 | 71 | 2.0 | 3.0 | 0.00 | 0.00 | 0.00 | 62 | 1027.2 |
| 20260509200720 | 55 | 19 | 0.0 | 4.0 | 0.00 | 0.00 | 0.00 | 62 | 1027.2 |
| 20260509200215 | 55 | 46 | 3.0 | 4.0 | 0.00 | 0.00 | 0.00 | 62 | 1027.0 |
| 20260509195711 | 55 | 85 | 3.0 | 5.0 | 0.00 | 0.00 | 0.00 | 62 | 1026.9 |
| 20260509195207 | 55 | 54 | 2.0 | 4.0 | 0.00 | 0.00 | 0.00 | 62 | 1026.9 |
| 20260509194706 | 55 | 72 | 2.0 | 4.0 | 0.00 | 0.00 | 0.00 | 62 | 1027.0 |
| 20260509194203 | 55 | 68 | 2.0 | 5.0 | 0.00 | 0.00 | 0.00 | 62 | 1027.0 |
| 20260509193700 | 54 | 39 | 2.0 | 4.0 | 0.00 | 0.00 | 0.00 | 62 | 1027.0 |
| 20260509193155 | 55 | 43 | 3.0 | 3.0 | 0.00 | 0.00 | 0.00 | 62 | 1026.9 |
| 20260509192652 | 55 | 24 | 3.0 | 4.0 | 0.00 | 0.00 | 0.00 | 62 | 1026.9 |
| 20260509192147 | 55 | 28 | 3.0 | 4.0 | 0.00 | 0.00 | 0.00 | 61 | 1026.9 |
| 20260509191647 | 55 | 39 | 3.0 | 5.0 | 0.00 | 0.00 | 0.00 | 61 | 1026.9 |
| 20260509191144 | 55 | 23 | 2.0 | 4.0 | 0.00 | 0.00 | 0.00 | 60 | 1027.0 |
| 20260509190640 | 56 | 21 | 3.0 | 3.0 | 0.00 | 0.00 | 0.00 | 59 | 1027.0 |
| 20260509190138 | 56 | 37 | 3.0 | 4.0 | 0.00 | 0.00 | 0.00 | 58 | 1027.0 |
| 20260509185635 | 57 | 37 | 5.0 | 5.0 | 0.00 | 0.00 | 0.00 | 57 | 1026.9 |
| 20260509185131 | 57 | 39 | 5.0 | 7.0 | 0.00 | 0.00 | 0.00 | 57 | 1027.1 |
| 20260509184629 | 57 | 45 | 7.0 | 9.0 | 0.00 | 0.00 | 0.00 | 56 | 1027.1 |
| 20260509184126 | 58 | 46 | 5.0 | 8.0 | 0.00 | 0.00 | 0.00 | 55 | 1026.9 |
| 20260509183622 | 58 | 49 | 6.0 | 10.0 | 0.00 | 0.00 | 0.00 | 55 | 1026.9 |
| 20260509183117 | 58 | 86 | 7.0 | 15.0 | 0.00 | 0.00 | 0.00 | 55 | 1027.0 |
| 20260509182613 | 57 | 80 | 6.0 | 8.0 | 0.00 | 0.00 | 0.00 | 55 | 1026.9 |
| 20260509182110 | 56 | 76 | 8.0 | 9.0 | 0.00 | 0.00 | 0.00 | 57 | 1027.0 |
| 20260509181609 | 55 | 61 | 4.0 | 5.0 | 0.00 | 0.00 | 0.00 | 59 | 1027.1 |
| 20260509181106 | 54 | 92 | 2.0 | 3.0 | 0.00 | 0.00 | 0.00 | 59 | 1027.1 |
| 20260509180602 | 54 | 88 | 4.0 | 4.0 | 0.00 | 0.00 | 0.00 | 59 | 1027.2 |
| 20260509180059 | 54 | 98 | 1.0 | 4.0 | 0.00 | 0.00 | 0.00 | 60 | 1027.3 |
| 20260509175554 | 54 | 67 | 2.0 | 3.0 | 0.00 | 0.00 | 0.00 | 61 | 1027.1 |
| 20260509175052 | 53 | 36 | 2.0 | 2.0 | 0.00 | 0.00 | 0.00 | 61 | 1027.1 |
| 20260509174548 | 54 | 61 | 0.0 | 2.0 | 0.00 | 0.00 | 0.00 | 61 | 1027.4 |
| 20260509174044 | 54 | 7 | 0.0 | 1.0 | 0.00 | 0.00 | 0.00 | 59 | 1027.2 |
| 20260509173543 | 54 | 49 | 1.0 | 4.0 | 0.00 | 0.00 | 0.00 | 59 | 1027.2 |
| 20260509173040 | 54 | 19 | 2.0 | 3.0 | 0.00 | 0.00 | 0.00 | 59 | 1027.4 |
| 20260509172537 | 54 | 36 | 2.0 | 3.0 | 0.00 | 0.00 | 0.00 | 59 | 1027.4 |
| 20260509172033 | 54 | 39 | 2.0 | 2.0 | 0.00 | 0.00 | 0.00 | 59 | 1027.4 |
| 20260509171529 | 54 | 2 | 1.0 | 2.0 | 0.00 | 0.00 | 0.00 | 60 | 1027.3 |
| 20260509171026 | 53 | 1 | 0.0 | 1.0 | 0.00 | 0.00 | 0.00 | 61 | 1027.4 |
| 20260509170521 | 53 | 34 | 0.0 | 0.0 | 0.00 | 0.00 | 0.00 | 61 | 1027.3 |
| 20260509170017 | 54 | 57 | 0.0 | 1.0 | 0.00 | 0.00 | 0.00 | 59 | 1027.4 |
| 20260509165516 | 55 | 205 | 0.0 | 1.0 | 0.00 | 0.00 | 0.00 | 57 | 1027.4 |
| 20260509165012 | 56 | 89 | 0.0 | 3.0 | 0.00 | 0.00 | 0.00 | 55 | 1027.4 |
| 20260509164508 | 56 | 93 | 2.0 | 4.0 | 0.00 | 0.00 | 0.00 | 54 | 1027.5 |
| 20260509164004 | 57 | 78 | 2.0 | 5.0 | 0.00 | 0.00 | 0.00 | 54 | 1027.2 |
| 20260509163502 | 57 | 99 | 3.0 | 5.0 | 0.00 | 0.00 | 0.00 | 53 | 1027.3 |
| 20260509163001 | 57 | 81 | 3.0 | 7.0 | 0.00 | 0.00 | 0.00 | 53 | 1027.3 |
| 20260509162500 | 57 | 92 | 5.0 | 5.0 | 0.00 | 0.00 | 0.00 | 52 | 1027.5 |
| 20260509161955 | 58 | 87 | 5.0 | 7.0 | 0.00 | 0.00 | 0.00 | 52 | 1027.4 |
| 20260509161452 | 58 | 99 | 4.0 | 8.0 | 0.00 | 0.00 | 0.00 | 51 | 1027.5 |
| 20260509160947 | 58 | 96 | 5.0 | 7.0 | 0.00 | 0.00 | 0.00 | 52 | 1027.3 |
| 20260509160443 | 57 | 88 | 7.0 | 8.0 | 0.00 | 0.00 | 0.00 | 52 | 1027.4 |
| 20260509155938 | 57 | 92 | 5.0 | 7.0 | 0.00 | 0.00 | 0.00 | 53 | 1027.4 |
| 20260509155435 | 57 | 95 | 5.0 | 7.0 | 0.00 | 0.00 | 0.00 | 53 | 1027.6 |
| 20260509154932 | 56 | 85 | 3.0 | 6.0 | 0.00 | 0.00 | 0.00 | 54 | 1027.6 |
| 20260509154428 | 57 | 94 | 3.0 | 5.0 | 0.00 | 0.00 | 0.00 | 52 | 1027.6 |
| 20260509153925 | 57 | 93 | 3.0 | 5.0 | 0.00 | 0.00 | 0.00 | 51 | 1027.7 |
| 20260509153422 | 57 | 77 | 5.0 | 6.0 | 0.00 | 0.00 | 0.00 | 52 | 1027.7 |
| 20260509152919 | 57 | 93 | 5.0 | 6.0 | 0.00 | 0.00 | 0.00 | 52 | 1027.7 |
| 20260509152415 | 57 | 85 | 4.0 | 6.0 | 0.00 | 0.00 | 0.00 | 53 | 1027.7 |
| 20260509151912 | 57 | 95 | 4.0 | 6.0 | 0.00 | 0.00 | 0.00 | 52 | 1027.8 |
| 20260509151408 | 57 | 98 | 4.0 | 6.0 | 0.00 | 0.00 | 0.00 | 52 | 1027.8 |
| 20260509150907 | 57 | 85 | 4.0 | 7.0 | 0.00 | 0.00 | 0.00 | 52 | 1027.8 |
| 20260509150404 | 57 | 87 | 4.0 | 5.0 | 0.00 | 0.00 | 0.00 | 51 | 1028.0 |
| 20260509145902 | 57 | 95 | 6.0 | 6.0 | 0.00 | 0.00 | 0.00 | 52 | 1027.9 |
| 20260509145401 | 57 | 87 | 6.0 | 6.0 | 0.00 | 0.00 | 0.00 | 52 | 1028.1 |
| 20260509144857 | 57 | 98 | 5.0 | 6.0 | 0.00 | 0.00 | 0.00 | 52 | 1027.8 |
| 20260509144354 | 57 | 94 | 4.0 | 6.0 | 0.00 | 0.00 | 0.00 | 52 | 1028.1 |
| 20260509143851 | 57 | 96 | 4.0 | 5.0 | 0.00 | 0.00 | 0.00 | 52 | 1028.0 |
| 20260509143349 | 58 | 100 | 4.0 | 6.0 | 0.00 | 0.00 | 0.00 | 51 | 1027.9 |
| 20260509142845 | 58 | 87 | 5.0 | 6.0 | 0.00 | 0.00 | 0.00 | 51 | 1028.0 |
| 20260509142341 | 58 | 104 | 4.0 | 7.0 | 0.00 | 0.00 | 0.00 | 51 | 1028.3 |
| 20260509141837 | 58 | 99 | 5.0 | 6.0 | 0.00 | 0.00 | 0.00 | 51 | 1027.9 |
| 20260509141334 | 58 | 99 | 6.0 | 6.0 | 0.00 | 0.00 | 0.00 | 51 | 1028.2 |
| 20260509140830 | 58 | 89 | 3.0 | 5.0 | 0.00 | 0.00 | 0.00 | 50 | 1028.2 |
| 20260509140328 | 59 | 96 | 5.0 | 6.0 | 0.00 | 0.00 | 0.00 | 49 | 1028.1 |
| 20260509135826 | 59 | 101 | 4.0 | 7.0 | 0.00 | 0.00 | 0.00 | 48 | 1028.2 |
| 20260509135323 | 60 | 84 | 5.0 | 6.0 | 0.00 | 0.00 | 0.00 | 48 | 1028.0 |
| 20260509134820 | 60 | 86 | 4.0 | 6.0 | 0.00 | 0.00 | 0.00 | 47 | 1027.9 |
| 20260509134317 | 60 | 97 | 5.0 | 7.0 | 0.00 | 0.00 | 0.00 | 48 | 1028.1 |
| 20260509133814 | 60 | 94 | 7.0 | 7.0 | 0.00 | 0.00 | 0.00 | 47 | 1028.0 |
| 20260509133311 | 59 | 87 | 7.0 | 8.0 | 0.00 | 0.00 | 0.00 | 48 | 1027.9 |
| 20260509132809 | 59 | 93 | 5.0 | 7.0 | 0.00 | 0.00 | 0.00 | 49 | 1028.0 |
| 20260509132308 | 59 | 92 | 5.0 | 7.0 | 0.00 | 0.00 | 0.00 | 49 | 1028.0 |
| 20260509131804 | 59 | 93 | 7.0 | 8.0 | 0.00 | 0.00 | 0.00 | 50 | 1027.8 |
| 20260509131301 | 59 | 97 | 6.0 | 8.0 | 0.00 | 0.00 | 0.00 | 50 | 1027.9 |
| 20260509130757 | 59 | 95 | 4.0 | 7.0 | 0.00 | 0.00 | 0.00 | 51 | 1028.0 |
| 20260509130253 | 59 | 102 | 5.0 | 7.0 | 0.00 | 0.00 | 0.00 | 51 | 1028.0 |
| 20260509125749 | 59 | 112 | 4.0 | 7.0 | 0.00 | 0.00 | 0.00 | 51 | 1028.0 |
| 20260509125247 | 59 | 108 | 5.0 | 6.0 | 0.00 | 0.00 | 0.00 | 52 | 1028.0 |
| 20260509124743 | 59 | 100 | 6.0 | 8.0 | 0.00 | 0.00 | 0.00 | 51 | 1027.9 |
| 20260509124239 | 59 | 104 | 7.0 | 8.0 | 0.00 | 0.00 | 0.00 | 51 | 1027.9 |
| 20260509123738 | 60 | 102 | 6.0 | 6.0 | 0.00 | 0.00 | 0.00 | 50 | 1027.8 |
| 20260509123235 | 60 | 87 | 4.0 | 8.0 | 0.00 | 0.00 | 0.00 | 50 | 1027.8 |
| 20260509122730 | 60 | 94 | 6.0 | 7.0 | 0.00 | 0.00 | 0.00 | 50 | 1027.7 |
| 20260509122227 | 60 | 105 | 5.0 | 7.0 | 0.00 | 0.00 | 0.00 | 50 | 1027.7 |
| 20260509121724 | 60 | 102 | 7.0 | 7.0 | 0.00 | 0.00 | 0.00 | 50 | 1027.7 |
| 20260509121222 | 60 | 93 | 5.0 | 6.0 | 0.00 | 0.00 | 0.00 | 51 | 1027.6 |
| 20260509120720 | 60 | 97 | 4.0 | 7.0 | 0.00 | 0.00 | 0.00 | 51 | 1027.6 |
| 20260509120217 | 60 | 98 | 5.0 | 5.0 | 0.00 | 0.00 | 0.00 | 51 | 1027.6 |
| 20260509115715 | 60 | 95 | 5.0 | 6.0 | 0.00 | 0.00 | 0.00 | 51 | 1027.6 |
| 20260509115212 | 60 | 91 | 5.0 | 7.0 | 0.00 | 0.00 | 0.00 | 51 | 1027.6 |
| 20260509114710 | 60 | 100 | 5.0 | 5.0 | 0.00 | 0.00 | 0.00 | 52 | 1027.5 |
| 20260509114209 | 60 | 96 | 4.0 | 7.0 | 0.00 | 0.00 | 0.00 | 52 | 1027.5 |
| 20260509113707 | 61 | 108 | 4.0 | 5.0 | 0.00 | 0.00 | 0.00 | 52 | 1027.5 |
| 20260509113204 | 61 | 106 | 5.0 | 6.0 | 0.00 | 0.00 | 0.00 | 51 | 1027.2 |
| 20260509112700 | 60 | 108 | 5.0 | 6.0 | 0.00 | 0.00 | 0.00 | 52 | 1027.4 |
| 20260509112157 | 61 | 111 | 5.0 | 5.0 | 0.00 | 0.00 | 0.00 | 52 | 1027.4 |
| 20260509111654 | 61 | 107 | 5.0 | 5.0 | 0.00 | 0.00 | 0.00 | 52 | 1027.4 |
| 20260509111151 | 62 | 103 | 4.0 | 5.0 | 0.00 | 0.00 | 0.00 | 51 | 1027.7 |
| 20260509110648 | 62 | 96 | 5.0 | 5.0 | 0.00 | 0.00 | 0.00 | 51 | 1027.4 |
| 20260509110145 | 62 | 109 | 4.0 | 5.0 | 0.00 | 0.00 | 0.00 | 51 | 1027.4 |
| 20260509105643 | 62 | 104 | 3.0 | 4.0 | 0.00 | 0.00 | 0.00 | 51 | 1027.6 |
| 20260509105141 | 62 | 113 | 4.0 | 5.0 | 0.00 | 0.00 | 0.00 | 51 | 1027.5 |
| 20260509104638 | 61 | 112 | 3.0 | 4.0 | 0.00 | 0.00 | 0.00 | 53 | 1027.5 |
| 20260509104134 | 61 | 117 | 2.0 | 3.0 | 0.00 | 0.00 | 0.00 | 53 | 1027.4 |
| 20260509103632 | 61 | 138 | 3.0 | 3.0 | 0.00 | 0.00 | 0.00 | 54 | 1027.6 |
| 20260509103130 | 61 | 161 | 1.0 | 2.0 | 0.00 | 0.00 | 0.00 | 54 | 1027.6 |
| 20260509102627 | 62 | 160 | 1.0 | 2.0 | 0.00 | 0.00 | 0.00 | 53 | 1027.4 |
| 20260509102124 | 63 | 159 | 1.0 | 2.0 | 0.00 | 0.00 | 0.00 | 52 | 1027.4 |
| 20260509101620 | 64 | 140 | 2.0 | 2.0 | 0.00 | 0.00 | 0.00 | 50 | 1027.4 |
| 20260509101117 | 64 | 133 | 2.0 | 2.0 | 0.00 | 0.00 | 0.00 | 49 | 1027.3 |
| 20260509100614 | 65 | 110 | 3.0 | 3.0 | 0.00 | 0.00 | 0.00 | 46 | 1027.3 |
| 20260509100112 | 66 | 107 | 3.0 | 3.0 | 0.00 | 0.00 | 0.00 | 44 | 1027.4 |
| 20260509095608 | 67 | 103 | 3.0 | 3.0 | 0.00 | 0.00 | 0.00 | 44 | 1027.3 |
| 20260509095106 | 67 | 99 | 2.0 | 3.0 | 0.00 | 0.00 | 0.00 | 43 | 1027.4 |
| 20260509094601 | 68 | 121 | 2.0 | 3.0 | 0.00 | 0.00 | 0.00 | 41 | 1027.2 |
| 20260509094059 | 69 | 114 | 3.0 | 4.0 | 0.00 | 0.00 | 0.00 | 40 | 1027.1 |
| 20260509093557 | 69 | 110 | 3.0 | 4.0 | 0.00 | 0.00 | 0.00 | 40 | 1027.3 |
| 20260509093054 | 69 | 117 | 3.0 | 4.0 | 0.00 | 0.00 | 0.00 | 40 | 1027.1 |
| 20260509092552 | 70 | 106 | 3.0 | 5.0 | 0.00 | 0.00 | 0.00 | 39 | 1027.1 |
| 20260509092051 | 70 | 114 | 4.0 | 5.0 | 0.00 | 0.00 | 0.00 | 39 | 1027.1 |
| 20260509091548 | 71 | 106 | 3.0 | 5.0 | 0.00 | 0.00 | 0.00 | 38 | 1027.2 |
| 20260509091044 | 71 | 113 | 3.0 | 4.0 | 0.00 | 0.00 | 0.00 | 37 | 1027.3 |
| 20260509090542 | 72 | 94 | 3.0 | 4.0 | 0.00 | 0.00 | 0.00 | 36 | 1027.5 |
| 20260509090039 | 73 | 101 | 2.0 | 4.0 | 0.00 | 0.00 | 0.00 | 35 | 1027.1 |
| 20260509085536 | 73 | 75 | 2.0 | 4.0 | 0.00 | 0.00 | 0.00 | 34 | 1027.1 |
| 20260509085032 | 73 | 70 | 4.0 | 6.0 | 0.00 | 0.00 | 0.00 | 32 | 1027.1 |
| 20260509084529 | 73 | 66 | 3.0 | 5.0 | 0.00 | 0.00 | 0.00 | 33 | 1027.0 |
| 20260509084026 | 74 | 70 | 5.0 | 5.0 | 0.00 | 0.00 | 0.00 | 32 | 1027.1 |
| 20260509083524 | 74 | 81 | 4.0 | 5.0 | 0.00 | 0.00 | 0.00 | 32 | 1027.2 |
| 20260509083020 | 74 | 41 | 5.0 | 5.0 | 0.00 | 0.00 | 0.00 | 32 | 1027.0 |
| 20260509082518 | 74 | 38 | 3.0 | 5.0 | 0.00 | 0.00 | 0.00 | 31 | 1027.1 |
| 20260509082015 | 74 | 70 | 3.0 | 5.0 | 0.00 | 0.00 | 0.00 | 31 | 1027.2 |
| 20260509081512 | 74 | 91 | 4.0 | 7.0 | 0.00 | 0.00 | 0.00 | 32 | 1027.0 |
| 20260509081009 | 74 | 38 | 4.0 | 6.0 | 0.00 | 0.00 | 0.00 | 32 | 1027.0 |
| 20260509080507 | 74 | 27 | 6.0 | 10.0 | 0.00 | 0.00 | 0.00 | 32 | 1027.1 |
| 20260509080005 | 75 | 51 | 5.0 | 5.0 | 0.00 | 0.00 | 0.00 | 30 | 1027.1 |
| 20260509075502 | 74 | 66 | 3.0 | 5.0 | 0.00 | 0.00 | 0.00 | 30 | 1027.1 |
| 20260509074959 | 74 | 98 | 5.0 | 7.0 | 0.00 | 0.00 | 0.00 | 31 | 1026.8 |
| 20260509074457 | 74 | 43 | 3.0 | 9.0 | 0.00 | 0.00 | 0.00 | 32 | 1026.9 |
| 20260509073953 | 74 | 64 | 3.0 | 5.0 | 0.00 | 0.00 | 0.00 | 31 | 1027.0 |
| 20260509073449 | 74 | 52 | 2.0 | 6.0 | 0.00 | 0.00 | 0.00 | 31 | 1027.0 |
| 20260509072946 | 74 | 43 | 9.0 | 13.0 | 0.00 | 0.00 | 0.00 | 32 | 1027.0 |
| 20260509072443 | 74 | 96 | 7.0 | 8.0 | 0.00 | 0.00 | 0.00 | 31 | 1026.9 |
| 20260509071939 | 74 | 98 | 7.0 | 7.0 | 0.00 | 0.00 | 0.00 | 31 | 1026.8 |
| 20260509071436 | 74 | 32 | 6.0 | 11.0 | 0.00 | 0.00 | 0.00 | 31 | 1026.9 |
| 20260509070934 | 74 | 61 | 13.0 | 15.0 | 0.00 | 0.00 | 0.00 | 31 | 1026.8 |
| 20260509070431 | 74 | 93 | 4.0 | 10.0 | 0.00 | 0.00 | 0.00 | 31 | 1026.6 |
| 20260509065926 | 74 | 91 | 2.0 | 6.0 | 0.00 | 0.00 | 0.00 | 32 | 1026.7 |
| 20260509065422 | 74 | 54 | 5.0 | 11.0 | 0.00 | 0.00 | 0.00 | 32 | 1026.6 |
| 20260509064919 | 74 | 37 | 8.0 | 15.0 | 0.00 | 0.00 | 0.00 | 32 | 1026.7 |
| 20260509064416 | 74 | 45 | 5.0 | 12.0 | 0.00 | 0.00 | 0.00 | 31 | 1026.7 |
| 20260509063914 | 73 | 343 | 4.0 | 7.0 | 0.00 | 0.00 | 0.00 | 32 | 1026.6 |
| 20260509063409 | 74 | 36 | 11.0 | 13.0 | 0.00 | 0.00 | 0.00 | 31 | 1026.5 |
| 20260509062907 | 73 | 41 | 9.0 | 13.0 | 0.00 | 0.00 | 0.00 | 32 | 1026.4 |
| 20260509062404 | 73 | 85 | 8.0 | 9.0 | 0.00 | 0.00 | 0.00 | 33 | 1026.3 |
| 20260509061901 | 73 | 76 | 7.0 | 13.0 | 0.00 | 0.00 | 0.00 | 33 | 1026.5 |
| 20260509061359 | 73 | 80 | 8.0 | 16.0 | 0.00 | 0.00 | 0.00 | 32 | 1026.5 |
| 20260509060855 | 73 | 77 | 3.0 | 12.0 | 0.00 | 0.00 | 0.00 | 33 | 1026.4 |
| 20260509060353 | 73 | 69 | 7.0 | 13.0 | 0.00 | 0.00 | 0.00 | 32 | 1026.5 |
| 20260509055848 | 73 | 80 | 10.0 | 14.0 | 0.00 | 0.00 | 0.00 | 33 | 1026.4 |
| 20260509055344 | 73 | 25 | 6.0 | 12.0 | 0.00 | 0.00 | 0.00 | 34 | 1026.5 |
| 20260509054841 | 73 | 67 | 9.0 | 15.0 | 0.00 | 0.00 | 0.00 | 33 | 1026.6 |
| 20260509054337 | 73 | 81 | 13.0 | 14.0 | 0.00 | 0.00 | 0.00 | 34 | 1026.6 |
| 20260509053836 | 73 | 93 | 11.0 | 16.0 | 0.00 | 0.00 | 0.00 | 34 | 1026.7 |
| 20260509053333 | 73 | 80 | 10.0 | 15.0 | 0.00 | 0.00 | 0.00 | 35 | 1026.8 |
| 20260509052831 | 74 | 61 | 8.0 | 11.0 | 0.00 | 0.00 | 0.00 | 36 | 1026.8 |
| 20260509052328 | 73 | 85 | 11.0 | 17.0 | 0.00 | 0.00 | 0.00 | 35 | 1026.8 |
| 20260509051826 | 73 | 55 | 8.0 | 10.0 | 0.00 | 0.00 | 0.00 | 36 | 1026.7 |
| 20260509051324 | 73 | 72 | 8.0 | 13.0 | 0.00 | 0.00 | 0.00 | 36 | 1026.9 |
| 20260509050820 | 73 | 37 | 9.0 | 13.0 | 0.00 | 0.00 | 0.00 | 36 | 1026.8 |
| 20260509050317 | 73 | 65 | 5.0 | 11.0 | 0.00 | 0.00 | 0.00 | 36 | 1026.9 |
| 20260509045814 | 72 | 66 | 9.0 | 13.0 | 0.00 | 0.00 | 0.00 | 37 | 1027.2 |
| 20260509045311 | 72 | 88 | 11.0 | 13.0 | 0.00 | 0.00 | 0.00 | 37 | 1027.1 |
| 20260509044808 | 72 | 66 | 8.0 | 14.0 | 0.00 | 0.00 | 0.00 | 37 | 1027.3 |
| 20260509044306 | 72 | 56 | 12.0 | 15.0 | 0.00 | 0.00 | 0.00 | 37 | 1027.4 |
| 20260509043802 | 71 | 71 | 7.0 | 14.0 | 0.00 | 0.00 | 0.00 | 38 | 1027.4 |
| 20260509043258 | 71 | 51 | 13.0 | 16.0 | 0.00 | 0.00 | 0.00 | 38 | 1027.5 |
| 20260509042754 | 72 | 62 | 11.0 | 15.0 | 0.00 | 0.00 | 0.00 | 38 | 1027.6 |
| 20260509042250 | 71 | 97 | 5.0 | 12.0 | 0.00 | 0.00 | 0.00 | 39 | 1027.8 |
| 20260509041747 | 71 | 77 | 7.0 | 12.0 | 0.00 | 0.00 | 0.00 | 38 | 1027.9 |
| 20260509041244 | 70 | 50 | 5.0 | 12.0 | 0.00 | 0.00 | 0.00 | 40 | 1028.1 |
| 20260509040743 | 71 | 58 | 13.0 | 16.0 | 0.00 | 0.00 | 0.00 | 38 | 1028.4 |
| 20260509040239 | 70 | 39 | 7.0 | 13.0 | 0.00 | 0.00 | 0.00 | 40 | 1028.1 |
| 20260509035736 | 70 | 52 | 9.0 | 16.0 | 0.00 | 0.00 | 0.00 | 40 | 1028.4 |
| 20260509035233 | 70 | 56 | 7.0 | 13.0 | 0.00 | 0.00 | 0.00 | 41 | 1028.6 |
| 20260509034730 | 69 | 47 | 11.0 | 14.0 | 0.00 | 0.00 | 0.00 | 41 | 1028.6 |
| 20260509034228 | 69 | 55 | 8.0 | 16.0 | 0.00 | 0.00 | 0.00 | 41 | 1028.6 |